Staples, MN

12:44 PM CDT on October 17, 2017 (GMT -0500)
Staples Municipal

Weather History for KSAZ - April, 2013

Change the Weather History Date:

Wednesday, April 3, 2013

  Actual Average Record
Temperature  
Mean Temperature 24 °F -  
Max Temperature 39 °F 46 °F 62 °F (2005)
Min Temperature 8 °F 26 °F 8 °F (2013)
Degree Days  
Heating Degree Days 42    
Moisture  
Dew Point 20 °F    
Average Humidity 75    
Maximum Humidity 100    
Minimum Humidity 52    
Precipitation  
Precipitation 0.00 in - - ()
Sea Level Pressure  
Sea Level Pressure 30.16 in    
Wind  
Wind Speed 6 mph (SSE)    
Max Wind Speed 23 mph    
Max Gust Speed 32 mph    
Visibility 10 miles    
Events      
Averages and records for this station are not official NWS values.
T = Trace of Precipitation, MM = Missing Value Source: NWS Daily Summary

Daily Weather History Graph

Daily Weather History Graph

Search for Another Location

Airport or City:

Trip Planner

Search our weather history database for the weather conditions in past years. The results will help you decide how hot, cold, wet, or windy it might be!

Date:

Astronomy

Apr. 03, 2013 Rise Set
Actual Time 6:54 AM CDT 7:51 PM CDT
Civil Twilight 6:23 AM CDT 8:21 PM CDT
Nautical Twilight 5:47 AM CDT 8:58 PM CDT
Astronomical Twilight 5:08 AM CDT 9:37 PM CDT
Moon 2:58 AM CDT (4/3) 12:42 PM CDT (4/3)
Length of Visible Light 13h 57m
Length of Day
12h 56m
Last Quarter, 44% of the Moon is Illuminated
Apr 3
Last Quarter
Apr 10
New
Apr 18
First Quarter
Apr 25
Full
May 2
Last Quarter

Hourly Weather History & Observations

Time (CDT) Temp. Windchill Dew Point Humidity Pressure Visibility Wind Dir Wind Speed Gust Speed Precip Events Conditions
12:13 AM 17.6 °F - 12.2 °F 79% 30.33 in 10.0 mi Calm Calm - N/A   Clear
12:34 AM 17.6 °F - 12.2 °F 79% 30.32 in 10.0 mi Calm Calm - N/A   Clear
12:53 AM 17.6 °F - 12.2 °F 79% 30.32 in 10.0 mi Calm Calm - N/A   Clear
1:13 AM 15.8 °F - 12.2 °F 86% 30.32 in 10.0 mi Calm Calm - N/A   Clear
1:34 AM 15.8 °F - 12.2 °F 86% 30.32 in 10.0 mi Calm Calm - N/A   Clear
1:53 AM 12.2 °F - 10.4 °F 92% 30.32 in 10.0 mi Calm Calm - N/A   Clear
2:13 AM 12.2 °F - 10.4 °F 92% 30.32 in 10.0 mi Calm Calm - N/A   Clear
2:33 AM 12.2 °F - 12.2 °F 100% 30.32 in 10.0 mi Calm Calm - N/A   Clear
2:53 AM 12.2 °F - 12.2 °F 100% 30.31 in 10.0 mi Calm Calm - N/A   Clear
3:14 AM 10.4 °F - 10.4 °F 100% 30.31 in 10.0 mi Calm Calm - N/A   Clear
3:33 AM 12.2 °F - 10.4 °F 92% 30.31 in 10.0 mi Calm Calm - N/A   Clear
3:53 AM 12.2 °F - 10.4 °F 92% 30.30 in 10.0 mi Calm Calm - N/A   Clear
4:14 AM 12.2 °F - 10.4 °F 92% 30.30 in 10.0 mi Calm Calm - N/A   Clear
4:33 AM 10.4 °F - 8.6 °F 92% 30.30 in 10.0 mi Calm Calm - N/A   Clear
4:53 AM 10.4 °F - 10.4 °F 100% 30.30 in 10.0 mi Calm Calm - N/A   Clear
5:14 AM 8.6 °F 2.0 °F 6.8 °F 92% 30.29 in 10.0 mi SSE 3.5 mph - N/A   Clear
5:33 AM 12.2 °F - 10.4 °F 92% 30.29 in 10.0 mi Calm Calm - N/A   Clear
5:53 AM 12.2 °F - 10.4 °F 92% 30.29 in 10.0 mi Calm Calm - N/A   Clear
6:13 AM 10.4 °F 4.0 °F 8.6 °F 92% 30.29 in 10.0 mi SE 3.5 mph - N/A   Clear
6:33 AM 10.4 °F - 8.6 °F 92% 30.29 in 10.0 mi Calm Calm - N/A   Clear
6:54 AM 10.4 °F 4.0 °F 8.6 °F 92% 30.29 in 10.0 mi SSE 3.5 mph - N/A   Clear
7:13 AM 10.4 °F 4.0 °F 8.6 °F 92% 30.29 in 10.0 mi SE 3.5 mph - N/A   Clear
7:33 AM 12.2 °F - 10.4 °F 92% 30.29 in 10.0 mi Calm Calm - N/A   Clear
7:54 AM 12.2 °F 6.1 °F 10.4 °F 92% 30.29 in 10.0 mi SSE 3.5 mph - N/A   Clear
8:13 AM 15.8 °F 7.2 °F 12.2 °F 86% 30.29 in 10.0 mi SSE 5.8 mph - N/A   Clear
8:33 AM 19.4 °F 9.5 °F 14.0 °F 80% 30.28 in 10.0 mi SSE 8.1 mph - N/A   Clear
8:54 AM 21.2 °F 10.1 °F 15.8 °F 80% 30.28 in 10.0 mi SSE 10.4 mph - N/A   Clear
9:13 AM 24.8 °F 13.4 °F 15.8 °F 69% 30.28 in 10.0 mi South 12.7 mph 19.6 mph N/A   Clear
9:33 AM 26.6 °F 15.7 °F 15.8 °F 64% 30.28 in 10.0 mi South 12.7 mph - N/A   Clear
9:54 AM 26.6 °F 14.7 °F 15.8 °F 64% 30.27 in 10.0 mi South 15.0 mph 18.4 mph N/A   Clear
10:13 AM 28.4 °F 18.0 °F 15.8 °F 59% 30.27 in 10.0 mi South 12.7 mph - N/A   Clear
10:34 AM 28.4 °F 18.5 °F 15.8 °F 59% 30.26 in 10.0 mi South 11.5 mph 19.6 mph N/A   Clear
10:53 AM 30.2 °F 19.8 °F 17.6 °F 60% 30.25 in 10.0 mi South 13.8 mph - N/A   Clear
11:13 AM 30.2 °F 19.3 °F 17.6 °F 60% 30.24 in 10.0 mi SSE 15.0 mph 24.2 mph N/A   Clear
11:33 AM 33.8 °F 23.5 °F 17.6 °F 52% 30.22 in 10.0 mi South 16.1 mph - N/A   Clear
11:53 AM 33.8 °F 25.3 °F 17.6 °F 52% 30.21 in 10.0 mi SSE 11.5 mph - N/A   Clear
12:13 PM 35.6 °F 27.5 °F 19.4 °F 52% 30.20 in 10.0 mi SSE 11.5 mph - N/A   Clear
12:33 PM 35.6 °F 27.1 °F 19.4 °F 52% 30.19 in 10.0 mi SSE 12.7 mph 18.4 mph N/A   Clear
12:53 PM 35.6 °F 26.2 °F 19.4 °F 52% 30.17 in 10.0 mi SSE 15.0 mph 19.6 mph N/A   Clear
1:13 PM 35.6 °F 26.2 °F 19.4 °F 52% 30.16 in 10.0 mi SSE 15.0 mph 24.2 mph N/A   Clear
1:33 PM 37.4 °F 29.3 °F 21.2 °F 52% 30.15 in 10.0 mi SSE 12.7 mph 20.7 mph N/A   Clear
1:53 PM 37.4 °F 29.3 °F 21.2 °F 52% 30.13 in 10.0 mi SSE 12.7 mph 27.6 mph N/A   Clear
2:13 PM 37.4 °F 29.3 °F 21.2 °F 52% 30.13 in 10.0 mi SSE 12.7 mph 23.0 mph N/A   Clear
2:33 PM 37.4 °F 26.9 °F 23.0 °F 56% 30.12 in 10.0 mi SSE 20.7 mph 26.5 mph N/A   Clear
2:53 PM 37.4 °F 27.2 °F 24.8 °F 60% 30.11 in 10.0 mi South 19.6 mph 26.5 mph N/A   Clear
3:13 PM 37.4 °F 26.6 °F 24.8 °F 60% 30.11 in 10.0 mi South 21.9 mph - N/A   Clear
3:34 PM 37.4 °F 26.9 °F 26.6 °F 65% 30.12 in 10.0 mi South 20.7 mph 27.6 mph N/A   Clear
3:53 PM 37.4 °F 27.5 °F 26.6 °F 65% 30.11 in 10.0 mi South 18.4 mph 25.3 mph N/A   Clear
4:13 PM 37.4 °F 27.5 °F 28.4 °F 70% 30.10 in 10.0 mi South 18.4 mph 27.6 mph N/A   Clear
4:34 PM 37.4 °F 26.6 °F 28.4 °F 70% 30.09 in 10.0 mi South 21.9 mph 28.8 mph N/A   Clear
4:53 PM 37.4 °F 27.5 °F 28.4 °F 70% 30.07 in 10.0 mi South 18.4 mph 25.3 mph N/A   Clear
5:13 PM 37.4 °F 26.4 °F 28.4 °F 70% 30.05 in 10.0 mi South 23.0 mph 29.9 mph N/A   Clear
5:34 PM 39.2 °F 28.7 °F 30.2 °F 70% 30.05 in 10.0 mi South 23.0 mph 32.2 mph N/A   Clear
5:53 PM 39.2 °F 29.8 °F 30.2 °F 70% 30.03 in 10.0 mi South 18.4 mph 26.5 mph N/A   Clear
6:14 PM 39.2 °F 30.2 °F 30.2 °F 70% 30.01 in 10.0 mi SSE 17.3 mph 25.3 mph N/A   Clear
6:33 PM 39.2 °F 30.2 °F 30.2 °F 70% 30.00 in 10.0 mi SSE 17.3 mph 21.9 mph N/A   Clear
6:53 PM 39.2 °F 30.5 °F 30.2 °F 70% 29.99 in 10.0 mi SSE 16.1 mph 24.2 mph N/A   Clear
7:14 PM 39.2 °F 31.6 °F 30.2 °F 70% 29.98 in 10.0 mi SSE 12.7 mph 19.6 mph N/A   Clear
7:33 PM 39.2 °F 30.8 °F 30.2 °F 70% 29.97 in 10.0 mi SSE 15.0 mph 21.9 mph N/A   Mostly Cloudy
7:53 PM 39.2 °F 32.5 °F 30.2 °F 70% 29.96 in 10.0 mi SSE 10.4 mph 19.6 mph N/A   Overcast
8:13 PM 39.2 °F 32.5 °F 32.0 °F 75% 29.95 in 10.0 mi SSE 10.4 mph - N/A   Overcast
8:33 PM 39.2 °F 33.0 °F 32.0 °F 75% 29.95 in 10.0 mi SSE 9.2 mph 16.1 mph N/A   Mostly Cloudy
8:54 PM 37.4 °F 31.4 °F 32.0 °F 81% 29.95 in 10.0 mi South 8.1 mph 17.3 mph N/A   Mostly Cloudy
9:13 PM 39.2 °F 30.5 °F 32.0 °F 75% 29.92 in 10.0 mi SSE 16.1 mph 20.7 mph N/A   Overcast
9:33 PM 37.4 °F 28.9 °F 32.0 °F 81% 29.92 in 10.0 mi South 13.8 mph 17.3 mph N/A   Overcast
9:53 PM 39.2 °F 31.6 °F 33.8 °F 81% 29.93 in 10.0 mi South 12.7 mph 18.4 mph N/A   Overcast
10:13 PM 37.4 °F 28.9 °F 32.0 °F 81% 29.92 in 10.0 mi South 13.8 mph - N/A   Overcast
10:34 PM 37.4 °F 29.3 °F 32.0 °F 81% 29.91 in 10.0 mi South 12.7 mph - N/A   Mostly Cloudy
10:53 PM 37.4 °F 29.3 °F 32.0 °F 81% 29.91 in 10.0 mi South 12.7 mph - N/A   Mostly Cloudy
11:13 PM 39.2 °F 29.8 °F 32.0 °F 75% 29.89 in 10.0 mi South 18.4 mph 24.2 mph N/A   Overcast
11:34 PM 39.2 °F 31.6 °F 32.0 °F 75% 29.91 in 10.0 mi SSW 12.7 mph 24.2 mph N/A   Overcast
11:53 PM 39.2 °F 34.2 °F 32.0 °F 75% 29.93 in 10.0 mi WNW 6.9 mph 16.1 mph N/A   Mostly Cloudy